Location: Toronto
(43.6672°N, 79.4170°W)
Time: 04:31:15
(UTC-04:00)

ISS - Visible Passes

Search period start: 26 October 2014 00:00
Search period end: 04 November 2014 23:00
Orbit: 412 x 416 km, 51.6° (Epoch: 26 October)

Date Brightness Start Highest point End Pass type
(mag) Time Alt. Az. Time Alt. Az. Time Alt. Az.
26 Oct -1.5 19:37:42 10° WNW 19:40:41 30° SW 19:43:38 10° SSE visible
27 Oct -2.4 18:48:16 10° WNW 18:51:32 51° SW 18:54:46 10° SE visible
28 Oct -0.1 19:37:08 10° WSW 19:38:29 12° SW 19:39:50 10° SSW visible
29 Oct -0.5 18:46:49 10° W 18:49:22 20° SW 18:51:55 10° S visible
